DW3224 Weather Reports


Display with metric or nautical units.
time (UTC)temp
F
wind
direction
speed
MPH
gust
MPH
rain 1hr
in
rain 24hr
in
rain mn
in
humidity
%
barometer
mb
20260504214506 59 0 0.0 0.0 0.00 0.00 0.00 75 1010.3
20260504214006 59 0 0.0 0.0 0.00 0.00 0.00 75 1010.3
20260504213006 60 0 0.0 0.0 0.00 0.00 0.00 74 1010.4
20260504212506 60 0 0.0 0.0 0.00 0.00 0.00 74 1010.5
20260504212005 61 0 0.0 0.0 0.00 0.00 0.00 72 1010.6
20260504211505 61 0 0.0 0.0 0.00 0.00 0.00 71 1010.6
20260504211005 61 0 0.0 0.0 0.00 0.00 0.00 70 1010.5
20260504210506 62 0 0.0 0.0 0.00 0.00 0.00 67 1010.4
20260504210006 64 0 0.0 0.0 0.00 0.00 0.00 66 1010.4
20260504205505 64 0 0.0 0.0 0.00 0.00 0.00 65 1010.5
20260504205005 64 0 0.0 0.0 0.00 0.00 0.00 65 1010.4
20260504204506 64 0 0.0 0.0 0.00 0.00 0.00 65 1010.4
20260504204006 64 0 0.0 0.0 0.00 0.00 0.00 64 1010.4
20260504203006 64 0 0.0 0.0 0.00 0.00 0.00 65 1010.5
20260504202505 63 0 0.0 0.0 0.00 0.00 0.00 67 1010.5
20260504201506 64 0 0.0 0.0 0.00 0.00 0.00 67 1010.4
20260504201005 64 0 0.0 0.0 0.00 0.00 0.00 66 1010.4
20260504200505 64 0 0.0 0.0 0.00 0.00 0.00 66 1010.4
20260504200006 64 0 0.0 0.0 0.00 0.00 0.00 67 1010.4
20260504195005 63 0 0.0 0.0 0.00 0.00 0.00 65 1010.5
20260504194505 63 0 0.0 0.0 0.00 0.00 0.00 65 1010.4
20260504194006 62 0 0.0 0.0 0.00 0.00 0.00 67 1010.5
20260504193506 62 0 0.0 0.0 0.00 0.00 0.00 70 1010.5
20260504193006 62 0 0.0 0.0 0.00 0.00 0.00 69 1010.6
20260504192506 63 0 0.0 0.0 0.00 0.00 0.00 66 1010.6
20260504192006 62 0 0.0 0.0 0.00 0.00 0.00 70 1010.6
20260504191005 62 0 0.0 0.0 0.00 0.00 0.00 68 1010.6
20260504190006 63 0 0.0 0.0 0.00 0.00 0.00 65 1010.5
20260504185505 63 0 0.0 0.0 0.00 0.00 0.00 66 1010.6
20260504185005 62 0 0.0 0.0 0.00 0.00 0.00 66 1010.6
20260504184006 60 0 0.0 0.0 0.00 0.00 0.00 72 1010.4
20260504183506 60 0 0.0 0.0 0.00 0.00 0.00 72 1010.5
20260504183005 60 0 0.0 0.0 0.00 0.00 0.00 74 1010.6
20260504182505 59 0 0.0 0.0 0.00 0.00 0.00 74 1010.6
20260504182006 60 0 0.0 0.0 0.00 0.00 0.00 73 1010.7
20260504181505 60 0 0.0 0.0 0.00 0.00 0.00 72 1010.7
20260504181006 59 0 0.0 0.0 0.00 0.00 0.00 74 1010.7
20260504180506 58 0 0.0 0.0 0.00 0.00 0.00 76 1010.7
20260504180005 58 0 0.0 0.0 0.00 0.00 0.00 75 1010.8
20260504175505 58 0 0.0 0.0 0.00 0.00 0.00 75 1010.8
20260504175005 59 0 0.0 0.0 0.00 0.00 0.00 74 1010.7
20260504174505 59 0 0.0 0.0 0.00 0.00 0.00 75 1010.6
20260504173505 58 0 0.0 0.0 0.00 0.00 0.00 75 1010.7
20260504172505 58 0 0.0 0.0 0.00 0.00 0.00 77 1010.6
20260504172006 58 0 0.0 0.0 0.00 0.00 0.00 77 1010.6
20260504171506 58 0 0.0 0.0 0.00 0.00 0.00 77 1010.6
20260504171006 58 0 0.0 0.0 0.00 0.00 0.00 77 1010.5
20260504151006 58 0 0.0 0.0 0.00 0.00 0.00 71 1010.2
20260504150506 58 0 0.0 0.0 0.00 0.00 0.00 71 1010.3
20260504141005 59 0 0.0 0.0 0.00 0.00 0.00 67 1009.6
20260504140505 59 0 0.0 0.0 0.00 0.00 0.00 67 1009.7
20260504130505 60 0 0.0 0.0 0.00 0.00 0.00 64 1009.2
20260504100505 59 0 0.0 0.0 0.00 0.00 0.00 67 1009.3
20260504082005 62 0 0.0 0.0 0.00 0.00 0.00 58 1009.0
20260504081505 62 0 0.0 0.0 0.00 0.00 0.00 58 1009.0
20260504081005 62 0 0.0 0.0 0.00 0.00 0.00 58 1009.0
20260504080505 62 0 0.0 0.0 0.00 0.00 0.00 59 1009.1
20260504050505 68 0 0.0 0.0 0.00 0.00 0.00 42 1009.4
20260504050005 69 0 0.0 0.0 0.00 0.00 0.00 42 1009.4
20260504045505 69 0 0.0 0.0 0.00 0.00 0.00 42 1009.5
20260504044505 68 0 0.0 0.0 0.00 0.00 0.00 41 1009.4
20260504044005 68 0 0.0 0.0 0.00 0.00 0.00 42 1009.4
20260504043505 68 0 0.0 0.0 0.00 0.00 0.00 42 1009.4
20260504043005 68 0 0.0 0.0 0.00 0.00 0.00 43 1009.4
20260504041005 69 0 0.0 0.0 0.00 0.00 0.00 43 1009.4
20260504040505 69 0 0.0 0.0 0.00 0.00 0.00 44 1009.4
20260504040006 69 0 0.0 0.0 0.00 0.00 0.00 44 1009.4
20260504035505 69 0 0.0 0.0 0.00 0.00 0.00 44 1009.3
20260504035005 69 0 0.0 0.0 0.00 0.00 0.00 44 1009.3
20260504034505 69 0 0.0 0.0 0.00 0.00 0.00 43 1009.2
20260504034005 70 0 0.0 0.0 0.00 0.00 0.00 43 1009.2
20260504033505 70 0 0.0 0.0 0.00 0.00 0.00 42 1009.2
20260504032505 71 0 0.0 0.0 0.00 0.00 0.00 42 1009.1
20260504032005 72 0 0.0 0.0 0.00 0.00 0.00 41 1009.2
20260504031005 73 0 0.0 0.0 0.00 0.00 0.00 41 1009.2
20260504030505 73 0 0.0 0.0 0.00 0.00 0.00 41 1009.2
20260504030005 74 0 0.0 0.0 0.00 0.00 0.00 42 1009.3
20260504025505 74 0 0.0 0.0 0.00 0.00 0.00 43 1009.3
20260504025005 75 0 0.0 0.0 0.00 0.00 0.00 42 1009.3
20260504024505 75 0 0.0 0.0 0.00 0.00 0.00 42 1009.3
20260504024005 75 0 0.0 0.0 0.00 0.00 0.00 42 1009.3
20260504023505 75 0 0.0 0.0 0.00 0.00 0.00 42 1009.4
20260504023005 75 0 0.0 0.0 0.00 0.00 0.00 44 1009.5
20260504022506 75 0 0.0 0.0 0.00 0.00 0.00 44 1009.5
20260504022005 74 0 0.0 0.0 0.00 0.00 0.00 44 1009.6
20260504021506 73 0 0.0 0.0 0.00 0.00 0.00 43 1009.7
20260504021005 74 0 0.0 0.0 0.00 0.00 0.00 43 1009.8
20260504020505 73 0 0.0 0.0 0.00 0.00 0.00 44 1009.7
20260504020005 73 0 0.0 0.0 0.00 0.00 0.00 45 1009.7
20260504015505 73 0 0.0 0.0 0.00 0.00 0.00 45 1009.7
20260504015005 72 0 0.0 0.0 0.00 0.00 0.00 47 1009.8
20260504014505 71 0 0.0 0.0 0.00 0.00 0.00 48 1009.8
20260504014005 70 0 0.0 0.0 0.00 0.00 0.00 52 1009.8
20260504013005 71 0 0.0 0.0 0.00 0.00 0.00 47 1009.9
20260504012505 72 0 0.0 0.0 0.00 0.00 0.00 46 1010.0
20260504012005 73 0 0.0 0.0 0.00 0.00 0.00 45 1010.0
20260504011506 73 0 0.0 0.0 0.00 0.00 0.00 44 1010.0
20260504011005 73 0 0.0 0.0 0.00 0.00 0.00 43 1010.0
20260504010505 73 0 0.0 0.0 0.00 0.00 0.00 44 1010.0
20260504010005 73 0 0.0 0.0 0.00 0.00 0.00 44 1010.1
20260504005505 73 0 0.0 0.0 0.00 0.00 0.00 44 1010.1
20260504005005 73 0 0.0 0.0 0.00 0.00 0.00 45 1010.2
20260504004505 73 0 0.0 0.0 0.00 0.00 0.00 44 1010.4
20260504004005 73 0 0.0 0.0 0.00 0.00 0.00 45 1010.5
20260504003005 73 0 0.0 0.0 0.00 0.00 0.00 44 1010.5
20260504002506 73 0 0.0 0.0 0.00 0.00 0.00 46 1010.6
20260504002005 72 0 0.0 0.0 0.00 0.00 0.00 47 1010.7
20260504001505 72 0 0.0 0.0 0.00 0.00 0.00 49 1010.6
20260504001005 71 0 0.0 0.0 0.00 0.00 0.00 47 1010.7
20260504000505 72 0 0.0 0.0 0.00 0.00 0.00 47 1010.8
20260504000005 71 0 0.0 0.0 0.00 0.00 0.00 47 1010.8
20260503235505 71 0 0.0 0.0 0.00 0.00 0.00 48 1010.9
20260503235005 70 0 0.0 0.0 0.00 0.00 0.00 50 1010.9
20260503234505 70 0 0.0 0.0 0.00 0.00 0.00 51 1010.9
20260503234005 70 0 0.0 0.0 0.00 0.00 0.00 51 1010.9
20260503233505 70 0 0.0 0.0 0.00 0.00 0.00 52 1011.0
20260503233005 70 0 0.0 0.0 0.00 0.00 0.00 52 1011.0
20260503232505 70 0 0.0 0.0 0.00 0.00 0.00 53 1011.1
20260503232005 69 0 0.0 0.0 0.00 0.00 0.00 53 1011.2
20260503231505 68 0 0.0 0.0 0.00 0.00 0.00 53 1011.3
20260503231005 69 0 0.0 0.0 0.00 0.00 0.00 56 1011.3
20260503230505 68 0 0.0 0.0 0.00 0.00 0.00 56 1011.3
20260503230005 68 0 0.0 0.0 0.00 0.00 0.00 55 1011.5
20260503225505 68 0 0.0 0.0 0.00 0.00 0.00 58 1011.5
20260503225005 67 0 0.0 0.0 0.00 0.00 0.00 58 1011.6
20260503224505 67 0 0.0 0.0 0.00 0.00 0.00 59 1011.6
20260503224006 66 0 0.0 0.0 0.00 0.00 0.00 60 1011.7
20260503223005 66 0 0.0 0.0 0.00 0.00 0.00 60 1011.9
20260503222506 66 0 0.0 0.0 0.00 0.00 0.00 61 1012.0
20260503222005 65 0 0.0 0.0 0.00 0.00 0.00 61 1012.0
20260503221506 65 0 0.0 0.0 0.00 0.00 0.00 61 1012.1
20260503221005 65 0 0.0 0.0 0.00 0.00 0.00 64 1012.2
20260503220006 64 0 0.0 0.0 0.00 0.00 0.00 66 1012.2
20260503215505 64 0 0.0 0.0 0.00 0.00 0.00 65 1012.3
20260503215005 64 0 0.0 0.0 0.00 0.00 0.00 66 1012.3